Location: Passo di Treia
(43.2833°N, 13.3333°E)
Time: 10:57:22
(UTC+00:00)

Cosmos 292 Rocket - Pass Details

Date: 09 December 2019
Orbit: 673 x 694 km, 74.0° (Epoch: 24 January)

Event Time Altitude Azimuth Distance (km) Brightness Sun altitude
Rises 17:00:39 0° 341° (NNW) 3,081 7.2 -15.7°
Reaches altitude 10° 17:03:00 10° 344° (NNW) 2,161 6.3 -16.1°
Maximum altitude 17:07:51 70° 68° (ENE) 739 3.7 -17.0°
Drops below altitude 10° 17:12:41 10° 153° (SSE) 2,142 6.2 -17.8°
Sets 17:14:59 0° 155° (SSE) 3,052 7.0 -18.2°
